DW8692 Weather Reports


Display with metric or nautical units.
time (UTC)temp
F
wind
direction
speed
MPH
gust
MPH
rain 1hr
in
rain 24hr
in
rain mn
in
humidity
%
barometer
mb
20220706130039 66 355 1.0 0.0 0.00 0.00 0.03 86 1013.4
20220706125538 66 355 0.0 0.0 0.00 0.00 0.03 87 1013.5
20220706125038 65 355 0.0 0.0 0.00 0.00 0.03 87 1013.4
20220706124542 65 355 1.0 0.0 0.00 0.00 0.03 88 1013.5
20220706124038 64 355 1.0 0.0 0.00 0.00 0.03 88 1013.5
20220706123538 64 247 0.0 0.0 0.00 0.00 0.03 90 1013.5
20220706123037 62 247 0.0 0.0 0.00 0.00 0.03 92 1013.4
20220706122037 62 247 0.0 0.0 0.00 0.00 0.03 93 1013.5
20220706121537 61 247 0.0 0.0 0.00 0.00 0.03 93 1013.4
20220706121036 60 247 0.0 0.0 0.00 0.00 0.03 93 1013.5
20220706120537 59 247 0.0 0.0 0.00 0.00 0.03 93 1013.3
20220706120037 58 247 0.0 0.0 0.00 0.00 0.03 93 1013.4
20220706115536 58 247 0.0 0.0 0.00 0.00 0.03 93 1013.3
20220706115036 57 247 0.0 0.0 0.00 0.00 0.03 93 1013.3
20220706114535 57 247 0.0 0.0 0.00 0.00 0.03 92 1013.2
20220706114034 57 247 0.0 0.0 0.00 0.00 0.03 92 1013.2
20220706113534 57 247 0.0 0.0 0.00 0.00 0.03 92 1013.1
20220706113038 57 247 0.0 0.0 0.00 0.00 0.03 92 1013.1
20220706112032 57 247 0.0 0.0 0.00 0.00 0.03 91 1013.0
20220706111534 57 247 0.0 0.0 0.00 0.00 0.03 92 1013.0
20220706111030 57 247 0.0 0.0 0.00 0.00 0.03 92 1012.9
20220706110532 58 247 0.0 0.0 0.00 0.00 0.03 92 1012.9
20220706110029 58 247 0.0 0.0 0.00 0.00 0.03 92 1012.8
20220706105528 58 247 0.0 0.0 0.00 0.00 0.03 91 1012.8
20220706105028 58 247 0.0 0.0 0.00 0.00 0.03 91 1012.8
20220706104527 58 247 0.0 0.0 0.00 0.00 0.03 91 1012.6
20220706104027 58 247 0.0 0.0 0.00 0.00 0.03 92 1012.6
20220706103527 59 247 1.0 0.0 0.00 0.00 0.03 92 1012.7
20220706103027 58 247 1.0 0.0 0.00 0.00 0.03 92 1012.6
20220706102027 58 246 0.0 0.0 0.00 0.00 0.03 91 1012.4
20220706101526 59 246 0.0 0.0 0.00 0.00 0.03 90 1012.4
20220706101026 59 246 0.0 0.0 0.00 0.00 0.03 92 1012.3
20220706100525 59 246 0.0 0.0 0.00 0.00 0.03 91 1012.3
20220706100025 59 246 0.0 0.0 0.00 0.00 0.03 90 1012.3
20220706095524 59 246 0.0 0.0 0.00 0.00 0.03 88 1012.4
20220706095023 59 246 0.0 0.0 0.00 0.00 0.03 88 1012.4
20220706094521 60 246 0.0 0.0 0.00 0.00 0.03 89 1012.3
20220706094023 60 246 0.0 0.0 0.00 0.00 0.03 89 1012.3
20220706093521 61 246 0.0 0.0 0.00 0.00 0.03 90 1012.3
20220706093020 61 246 0.0 0.0 0.00 0.00 0.03 89 1012.3
20220706092019 61 246 0.0 0.0 0.00 0.00 0.03 89 1012.4
20220706091518 61 246 0.0 0.0 0.00 0.00 0.03 89 1012.5
20220706091018 61 246 0.0 0.0 0.00 0.00 0.03 89 1012.5
20220706090518 62 246 0.0 0.0 0.00 0.00 0.03 88 1012.5
20220706090021 62 246 0.0 0.0 0.00 0.00 0.03 88 1012.5
20220706085518 62 246 0.0 0.0 0.00 0.00 0.03 86 1012.4
20220706085016 62 246 0.0 0.0 0.00 0.00 0.03 86 1012.4
20220706084525 63 246 0.0 0.0 0.00 0.00 0.03 86 1012.2
20220706084016 63 246 0.0 0.0 0.00 0.00 0.03 84 1012.2
20220706083517 64 246 0.0 0.0 0.00 0.00 0.03 85 1012.1
20220706083016 64 246 1.0 0.0 0.00 0.00 0.03 84 1012.0
20220706082018 65 247 2.0 0.0 0.00 0.00 0.03 83 1012.0
20220706081517 65 267 3.0 0.0 0.00 0.00 0.03 83 1012.0
20220706081017 65 265 3.0 0.0 0.00 0.00 0.03 84 1012.0
20220706080516 65 248 4.0 0.0 0.00 0.00 0.03 84 1012.1
20220706080016 65 267 4.0 0.0 0.00 0.00 0.03 85 1012.1
20220706075515 64 267 3.0 0.0 0.00 0.00 0.03 86 1012.2
20220706075016 64 260 3.0 0.0 0.00 0.00 0.03 86 1012.2
20220706074518 64 264 2.0 0.0 0.00 0.00 0.03 87 1012.2
20220706074016 64 263 3.0 0.0 0.00 0.00 0.03 86 1012.1
20220706073516 64 263 4.0 0.0 0.00 0.00 0.03 86 1012.1
20220706073018 64 259 4.0 0.0 0.00 0.00 0.03 87 1012.2
20220706072015 64 265 3.0 0.0 0.00 0.00 0.03 86 1012.1
20220706071518 64 265 3.0 0.0 0.00 0.00 0.03 86 1012.1
20220706071016 65 263 3.0 0.0 0.00 0.00 0.03 87 1012.2
20220706070515 64 265 4.0 0.0 0.00 0.00 0.03 87 1012.2
20220706070016 64 265 3.0 0.0 0.00 0.00 0.03 88 1012.2
20220706065515 64 262 3.0 0.0 0.00 0.00 0.03 88 1012.2
20220706065015 64 265 3.0 0.0 0.00 0.00 0.03 87 1012.2
20220706064515 64 268 4.0 0.0 0.00 0.00 0.03 87 1012.2
20220706064015 64 265 3.0 0.0 0.00 0.00 0.03 88 1012.2
20220706063515 64 266 3.0 0.0 0.00 0.00 0.03 88 1012.2
20220706063015 64 265 3.0 0.0 0.00 0.00 0.03 88 1012.1
20220706062014 64 265 3.0 0.0 0.00 0.00 0.03 89 1012.1
20220706061514 64 267 2.0 0.0 0.00 0.00 0.03 89 1012.2
20220706061013 64 268 3.0 0.0 0.00 0.00 0.03 89 1012.2
20220706060514 64 267 3.0 0.0 0.00 0.00 0.03 89 1012.1
20220706060014 64 262 3.0 0.0 0.00 0.00 0.03 89 1012.2
20220706055514 64 240 4.0 0.0 0.00 0.00 0.03 89 1012.2
20220706055017 64 235 3.0 0.0 0.00 0.00 0.03 90 1012.0
20220706054513 64 232 2.0 0.0 0.00 0.00 0.03 90 1011.9
20220706054013 64 182 1.0 0.0 0.00 0.00 0.03 88 1011.9
20220706053513 64 176 1.0 0.0 0.00 0.00 0.03 89 1011.7
20220706053013 64 176 2.0 0.0 0.00 0.00 0.03 88 1011.5
20220706052013 64 161 2.0 0.0 0.00 0.00 0.03 88 1011.3
20220706051512 65 151 1.0 0.0 0.00 0.00 0.03 88 1011.3
20220706051012 65 140 0.0 0.0 0.00 0.00 0.03 88 1011.3
20220706050513 65 139 1.0 0.0 0.00 0.00 0.03 88 1011.3
20220706050014 65 139 1.0 0.0 0.00 0.00 0.03 87 1011.3
20220706045514 66 140 1.0 0.0 0.00 0.00 0.03 87 1011.3
20220706045013 66 140 2.0 0.0 0.00 0.00 0.03 86 1011.2
20220706044513 67 140 2.0 0.0 0.00 0.00 0.03 86 1011.2
20220706044017 67 140 1.0 0.0 0.00 0.00 0.03 86 1011.3
20220706043512 68 0.0 0.0 0.00 0.00 0.03 85 1011.2
20220706043013 68 132 5.0 0.0 0.00 0.00 0.03 85 1011.2
20220706042011 68 129 4.0 0.0 0.00 0.00 0.03 85 1011.5
20220706041517 68 109 3.0 0.0 0.00 0.00 0.03 86 1011.5
20220706041011 68 87 4.0 0.0 0.00 0.00 0.03 85 1011.8
20220706040511 68 140 7.0 0.0 0.00 0.00 0.03 85 1011.6
20220706040011 69 142 6.0 0.0 0.00 0.00 0.03 85 1011.6
20220706035510 69 165 5.0 0.0 0.00 0.00 0.03 85 1011.9
20220706035011 69 165 4.0 0.0 0.00 0.00 0.03 85 1012.0
20220706034510 68 139 2.0 0.0 0.00 0.00 0.03 85 1011.9
20220706034010 68 196 1.0 0.0 0.00 0.00 0.02 87 1012.0
20220706033510 69 196 1.0 0.0 0.00 0.00 0.02 86 1011.6
20220706033010 69 190 2.0 0.0 0.00 0.00 0.02 87 1011.7
20220706032011 69 153 2.0 0.0 0.00 0.00 0.02 87 1011.2
20220706031510 69 154 4.0 0.0 0.00 0.00 0.02 87 1011.2
20220706031012 69 150 5.0 0.0 0.00 0.00 0.02 86 1011.0
20220706030511 70 133 2.0 0.0 0.00 0.00 0.02 85 1011.0
20220706030017 71 33 0.0 0.0 0.00 0.00 0.02 84 1012.0
20220706025510 71 33 0.0 0.0 0.00 0.00 0.02 83 1012.2
20220706025010 71 33 0.0 0.0 0.00 0.00 0.01 82 1012.3
20220706024510 72 33 0.0 0.0 0.00 0.00 0.01 81 1012.4
20220706024008 72 33 0.0 0.0 0.00 0.00 0.01 79 1012.2
20220706023508 72 33 0.0 0.0 0.00 0.00 0.01 78 1012.1
20220706023011 72 33 0.0 0.0 0.00 0.00 0.01 76 1012.0
20220706022008 72 33 0.0 0.0 0.00 0.00 0.01 76 1011.8
20220706021508 72 33 0.0 0.0 0.00 0.00 0.01 75 1011.8
20220706021009 72 33 0.0 0.0 0.00 0.00 0.01 75 1011.6
20220706020509 72 33 0.0 0.0 0.00 0.00 0.01 75 1011.6
20220706020008 73 33 0.0 0.0 0.00 0.00 0.01 76 1011.6
20220706015507 73 33 0.0 0.0 0.00 0.00 0.01 75 1011.5
20220706015008 73 33 0.0 0.0 0.00 0.00 0.01 74 1011.4
20220706014507 73 33 0.0 0.0 0.00 0.00 0.01 74 1011.3
20220706014008 73 33 0.0 0.0 0.00 0.00 0.01 74 1011.1
20220706013508 74 33 0.0 0.0 0.00 0.00 0.01 74 1010.9
20220706013007 74 33 0.0 0.0 0.00 0.00 0.01 68 1010.9
20220706012508 75 33 0.0 0.0 0.00 0.00 0.01 69 1010.8
20220706012006 75 33 1.0 0.0 0.00 0.00 0.01 68 1010.8
20220706011506 75 33 0.0 0.0 0.00 0.00 0.01 66 1010.6
20220706011011 75 33 0.0 0.0 0.00 0.00 0.01 67 1010.6
20220706010509 76 33 1.0 0.0 0.00 0.00 0.01 66 1010.5
20220706010007 76 33 2.0 0.0 0.00 0.00 0.01 66 1010.4
20220706005006 77 33 2.0 0.0 0.00 0.00 0.01 63 1010.4
20220706004507 77 76 3.0 0.0 0.00 0.00 0.01 62 1010.2
20220706004007 77 91 2.0 0.0 0.00 0.00 0.01 66 1010.1
20220706003510 78 67 2.0 0.0 0.00 0.00 0.01 62 1010.2
20220706003006 78 53 2.0 0.0 0.00 0.00 0.01 67 1010.3
20220706002509 77 53 3.0 0.0 0.00 0.00 0.01 63 1010.3
20220706002006 77 66 3.0 0.0 0.00 0.00 0.01 65 1010.4
20220706001507 77 81 3.0 0.0 0.00 0.00 0.01 64 1010.6
20220706001006 77 53 3.0 0.0 0.00 0.00 0.01 65 1010.5
20220706000505 76 50 3.0 0.0 0.00 0.00 0.01 67 1010.6
20220706000011 77 63 3.0 0.0 0.00 0.00 0.01 67 1010.6
20220705235006 77 79 3.0 0.0 0.00 0.00 0.01 65 1010.7
20220705234506 78 34 2.0 0.0 0.00 0.00 0.01 63 1010.9
20220705234005 78 109 1.0 0.0 0.00 0.00 0.01 63 1010.9
20220705233504 77 115 0.0 0.0 0.00 0.00 0.01 59 1010.9
20220705233008 77 115 0.0 0.0 0.00 0.00 0.01 61 1010.8
20220705232505 78 115 1.0 0.0 0.00 0.00 0.01 62 1010.7
20220705232006 78 115 1.0 0.0 0.00 0.00 0.01 63 1010.7
20220705231505 78 115 2.0 0.0 0.00 0.00 0.01 60 1010.5
20220705231005 78 115 1.0 0.0 0.00 0.00 0.01 59 1010.6
20220705230504 77 116 1.0 0.0 0.00 0.00 0.01 61 1010.6
20220705230004 78 117 1.0 0.0 0.00 0.00 0.01 60 1010.6
20220705225004 78 117 1.0 0.0 0.00 0.00 0.01 59 1010.7
20220705224504 79 117 1.0 0.0 0.00 0.00 0.01 59 1010.8
20220705224006 80 119 1.0 0.0 0.00 0.00 0.01 56 1010.7
20220705223504 80 263 2.0 0.0 0.00 0.00 0.01 55 1010.7
20220705223004 80 273 2.0 0.0 0.00 0.00 0.01 54 1010.8
20220705222505 82 221 2.0 0.0 0.00 0.00 0.01 53 1010.8
20220705222002 81 236 3.0 0.0 0.00 0.00 0.01 53 1010.8
20220705221504 81 227 3.0 0.0 0.00 0.00 0.01 53 1010.9
20220705221005 81 275 2.0 0.0 0.00 0.00 0.01 57 1010.9
20220705220500 80 284 2.0 0.0 0.00 0.00 0.01 54 1010.8
20220705220100 81 319 1.0 0.0 0.00 0.00 0.01 57 1010.9
20220705215700 80 319 2.0 0.0 0.00 0.00 0.01 58 1011.1
20220705215100 80 57 2.0 0.0 0.00 0.00 0.01 58 1011.0
20220705214559 79 57 2.0 0.0 0.00 0.00 0.01 60 1010.9
20220705214100 79 36 3.0 0.0 0.00 0.00 0.01 61 1010.9
20220705213600 79 5 3.0 0.0 0.00 0.00 0.01 57 1011.0
20220705213059 79 29 3.0 0.0 0.00 0.00 0.01 57 1011.0
20220705212602 79 341 1.0 0.0 0.00 0.00 0.01 56 1011.0
20220705212059 79 9 1.0 0.0 0.00 0.00 0.01 56 1011.0
20220705211612 79 5 2.0 0.0 0.00 0.00 0.01 56 1011.1
20220705211059 80 333 3.0 0.0 0.00 0.00 0.01 57 1011.1
20220705210559 80 308 3.0 0.0 0.00 0.00 0.01 59 1011.1
20220705210058 79 289 2.0 0.0 0.00 0.00 0.01 58 1011.2
20220705205658 80 253 2.0 0.0 0.00 0.00 0.01 57 1011.1
20220705205059 79 258 1.0 0.0 0.00 0.00 0.01 58 1011.2
20220705204604 79 311 2.0 0.0 0.00 0.00 0.01 60 1011.2
20220705204101 78 355 1.0 0.0 0.00 0.00 0.01 60 1011.2
20220705203601 78 333 1.0 0.0 0.00 0.00 0.01 58 1011.3
20220705203058 78 79 2.0 0.0 0.00 0.00 0.01 58 1011.4
20220705202558 78 16 3.0 0.0 0.00 0.00 0.01 58 1011.3
20220705202058 79 355 3.0 0.0 0.00 0.00 0.01 58 1011.4
20220705201558 79 298 3.0 0.0 0.00 0.00 0.01 59 1011.4
20220705201058 79 267 3.0 0.0 0.00 0.00 0.01 56 1011.5
20220705200557 79 215 1.0 0.0 0.00 0.00 0.01 56 1011.6
20220705200057 79 259 3.0 0.0 0.00 0.00 0.01 59 1011.6
20220705195656 79 259 2.0 0.0 0.00 0.00 0.01 59 1011.7
20220705195059 79 283 2.0 0.0 0.00 0.00 0.01 60 1011.7
20220705194601 78 259 3.0 0.0 0.00 0.00 0.01 57 1011.8
20220705194055 78 270 4.0 0.0 0.00 0.00 0.01 59 1011.9
20220705193554 79 261 3.0 0.0 0.00 0.00 0.01 60 1011.8
20220705193054 79 284 2.0 0.0 0.00 0.00 0.01 59 1011.9
20220705192559 78 249 2.0 0.0 0.00 0.00 0.01 59 1011.8
20220705192054 78 266 3.0 0.0 0.00 0.00 0.01 59 1011.8
20220705191553 78 263 2.0 0.0 0.00 0.00 0.01 60 1011.9
20220705191053 78 316 2.0 0.0 0.00 0.00 0.01 61 1012.0
20220705190551 78 351 2.0 0.0 0.00 0.00 0.01 61 1012.0
20220705190052 76 257 2.0 0.0 0.00 0.00 0.01 66 1012.0
20220705185650 76 257 2.0 0.0 0.00 0.00 0.01 66 1011.9
20220705185051 75 286 3.0 0.0 0.00 0.00 0.01 70 1011.8
20220705184550 75 40 2.0 0.0 0.00 0.00 0.01 66 1011.9
20220705184049 74 5 1.0 0.0 0.00 0.00 0.01 67 1012.0
20220705183549 75 313 1.0 0.0 0.00 0.00 0.01 66 1012.0
20220705183049 75 304 2.0 0.0 0.00 0.00 0.01 65 1012.1
20220705182547 75 319 2.0 0.0 0.00 0.00 0.01 66 1012.2
20220705182047 74 267 2.0 0.0 0.00 0.00 0.01 67 1012.1
20220705181547 74 347 2.0 0.0 0.00 0.00 0.01 70 1012.1
20220705181046 74 304 3.0 0.0 0.00 0.00 0.01 67 1012.1
20220705180547 73 324 3.0 0.0 0.00 0.00 0.01 68 1012.2
20220705180100 74 325 3.0 0.0 0.00 0.00 0.01 69 1012.1
20220705175649 74 298 3.0 0.0 0.00 0.00 0.01 72 1012.1
20220705175047 74 304 3.0 0.0 0.00 0.00 0.01 70 1012.1
20220705174546 73 308 4.0 0.0 0.00 0.00 0.01 69 1012.1
20220705174046 73 310 4.0 0.0 0.00 0.00 0.01 68 1012.0
20220705173545 74 272 4.0 0.0 0.00 0.00 0.01 70 1011.9
20220705173049 74 304 4.0 0.0 0.00 0.00 0.01 71 1012.0
20220705172544 73 266 4.0 0.0 0.00 0.00 0.01 71 1012.0
20220705172046 73 281 4.0 0.0 0.00 0.00 0.01 72 1012.1
20220705171543 73 270 4.0 0.0 0.00 0.00 0.01 72 1012.1
20220705171043 72 304 4.0 0.0 0.00 0.00 0.01 71 1012.2
20220705170544 72 275 4.0 0.0 0.00 0.00 0.01 73 1012.1
20220705170040 72 280 4.0 0.0 0.00 0.00 0.01 71 1012.0
20220705165640 71 294 5.0 0.0 0.00 0.00 0.01 75 1012.0
20220705165040 71 308 5.0 0.0 0.00 0.00 0.01 76 1012.0
20220705164538 71 311 6.0 0.0 0.00 0.00 0.01 74 1011.9
20220705164038 72 333 5.0 0.0 0.00 0.00 0.01 74 1011.6
20220705163538 72 324 4.0 0.0 0.00 0.00 0.01 76 1011.7
20220705163037 72 349 4.0 0.0 0.00 0.00 0.01 76 1011.6
20220705162536 71 309 4.0 0.0 0.00 0.00 0.01 79 1011.7
20220705162039 71 303 4.0 0.0 0.00 0.00 0.01 77 1011.5
20220705161534 71 331 5.0 0.0 0.00 0.00 0.01 78 1011.4
20220705161035 70 360 5.0 0.0 0.00 0.00 0.01 77 1011.3
20220705160534 70 319 5.0 0.0 0.00 0.00 0.01 78 1011.3
20220705160036 70 261 5.0 0.0 0.00 0.00 0.01 77 1011.2
20220705155635 69 306 5.0 0.0 0.00 0.00 0.01 78 1011.2
20220705155030 69 300 5.0 0.0 0.00 0.00 0.01 80 1011.1
20220705154531 69 308 5.0 0.0 0.00 0.00 0.01 80 1011.1
20220705154032 68 320 5.0 0.0 0.00 0.00 0.01 80 1011.2
20220705153527 68 333 5.0 0.0 0.00 0.00 0.01 81 1011.0
20220705153026 68 308 5.0 0.0 0.00 0.00 0.01 82 1011.0
20220705152525 67 332 5.0 0.0 0.00 0.00 0.01 83 1010.9
20220705152025 67 288 5.0 0.0 0.00 0.00 0.01 82 1010.9
20220705151522 66 290 4.0 0.0 0.00 0.00 0.01 83 1010.9
20220705151021 66 295 4.0 0.0 0.00 0.00 0.01 83 1010.6
20220705150520 66 293 3.0 0.0 0.00 0.00 0.01 83 1010.6
20220705150028 65 261 2.0 0.0 0.00 0.00 0.01 85 1010.7
20220705145618 65 261 1.0 0.0 0.00 0.00 0.01 85 1010.2
20220705145017 64 294 2.0 0.0 0.00 0.00 0.01 85 1010.2
20220705144516 64 298 1.0 0.0 0.00 0.00 0.01 87 1010.1
20220705144017 64 277 1.0 0.0 0.00 0.00 0.01 86 1010.1
20220705143513 63 277 2.0 0.0 0.00 0.00 0.01 86 1009.9
20220705143012 63 306 2.0 0.0 0.00 0.00 0.01 87 1010.0
20220705142512 63 307 2.0 0.0 0.00 0.00 0.01 86 1010.2
20220705142011 62 306 2.0 0.0 0.00 0.00 0.01 86 1010.3
20220705141510 62 279 3.0 0.0 0.00 0.00 0.01 87 1010.5
20220705141010 62 264 3.0 0.0 0.00 0.00 0.01 88 1010.8
20220705140509 61 5 4.0 0.0 0.00 0.00 0.01 88 1010.5
20220705140009 61 155 8.0 0.0 0.00 0.00 0.01 88 1010.4
20220705135608 61 155 9.0 0.0 0.00 0.00 0.01 88 1009.2
20220705135009 61 175 11.0 0.0 0.00 0.00 0.01 88 1008.9
20220705134508 61 143 12.0 0.0 0.00 0.00 0.01 89 1008.6
20220705134006 62 148 14.0 0.0 0.00 0.00 0.01 90 1009.3
20220705133505 62 146 15.0 0.0 0.00 0.00 0.01 91 1009.2
20220705133004 62 138 14.0 0.0 0.00 0.00 0.01 91 1009.3
20220705132503 62 148 10.0 0.0 0.00 0.00 0.00 91 1009.8
20220705132001 62 142 6.0 0.0 0.00 0.00 0.03 91 1011.5
20220705131503 62 157 4.0 0.0 0.00 0.00 0.03 92 1012.4
20220705131001 63 154 1.0 0.0 0.00 0.00 0.03 92 1012.8
20220705130502 63 231 1.0 0.0 0.00 0.00 0.02 92 1013.0